Home   Weather   Hollabrunn   Past weeks

Flag for Austria Past Weather in Hollabrunn, Lower Austria, Austria — Yesterday and Last 2 Weeks

Now
46 °F

Cool.


Feels Like: 41 °F
Forecast: 35 / 44 °F
Wind: 8 mph from Southwest

Location: Retz

Current Time: Dec 11, 2016 at 1:10:24 pm

Latest Report: Dec 11, 2016 at 12:00 pm


Visibility: N/A

Pressure: 29.96 "Hg

Humidity: 70%

Dew Point: 36 °F

Location of HollabrunnLocation

Past Weather in Hollabrunn — Graph

°F

Hollabrunn Temperature Yesterday

Maximum temperature yesterday: 54 °F (at 1:00 pm)
Minimum temperature yesterday: 38 °F (at 2:00 am)
Average temperature yesterday: 45 °F

High & Low Weather Summary for the Past Weeks

 TemperatureHumidityPressure
High54 °F (Dec 10, 1:00 pm)100% (Dec 8, 8:00 am)30.70 "Hg (Dec 8, 8:00 am)
Low23 °F (Dec 6, 5:00 am)44% (Nov 30, 8:00 pm)29.76 "Hg (Dec 2, 7:00 am)
Average34 °F82%30.31 "Hg
* Reported Nov 26 12:00 pm — Dec 11 12:00 pm, Hollabrunn, Weather by CustomWeather, © 2016

Note: Actual official high and low records may vary slightly from our data, if they occured in-between our weather recording intervals... More about our weather records

Advertising

Hollabrunn Weather History for the Previous 24 Hours

Scroll right to see more
 ConditionsComfort  
Time TempWeatherWind HumidityBarometerVisibility
12:00 pm
Sun, Dec 11
46 °FCool.8 mph70%29.96 "HgN/A
11:00 am44 °FQuite cool.7 mph67%29.99 "HgN/A
10:00 am40 °FQuite cool.6 mph68%30.03 "HgN/A
9:00 am36 °FChilly.2 mph79%30.04 "HgN/A
8:00 am36 °FChilly.2 mph79%30.06 "HgN/A
7:00 am35 °FPassing clouds.1 mph84%30.06 "Hg6 mi
6:00 am37 °FChilly.3 mph80%30.06 "HgN/A
5:00 am37 °FChilly.2 mph82%30.09 "HgN/A
4:00 am38 °FChilly.3 mph80%30.11 "HgN/A
3:00 am42 °FQuite cool.5 mph70%30.12 "HgN/A
2:00 am42 °FQuite cool.6 mph77%30.14 "HgN/A
1:00 am39 °FChilly.6 mph83%30.17 "HgN/A
12:00 am43 °FQuite cool.6 mph75%30.18 "HgN/A
11:00 pm
Sat, Dec 10
42 °FQuite cool.3 mph81%30.19 "HgN/A
10:00 pm44 °FQuite cool.2 mph80%30.19 "HgN/A
9:00 pm44 °FQuite cool.3 mph82%30.19 "HgN/A
8:00 pm44 °FQuite cool.2 mph84%30.19 "HgN/A
7:00 pm44 °FPassing clouds.3 mph85%30.20 "Hg7 mi
6:00 pm47 °FCool.3 mph80%30.20 "HgN/A
5:00 pm46 °FCool.5 mph84%30.22 "HgN/A
4:00 pm52 °FCool.2 mph74%30.21 "HgN/A
3:00 pm54 °FCool.2 mph71%30.21 "HgN/A
2:00 pm53 °FCool.6 mph70%30.23 "HgN/A
1:00 pm54 °FScattered clouds.10 mph69%30.22 "Hg19 mi
Weather by CustomWeather, © 2016

See weather overviewHow to use our weather pages